Date String (YYYY-MM-DD hh:mm:ss) UTC,Instrument flags,Ambient pressure (hPa),Sample flow (lpm),Bypass flow (lpm),Sample temperature (°C),Ambient temperature (°C),ASC tube jacket temperature (°C),LED temperature (°C),Box temperature (°C),Sample RH (%),Span deviation,Mass concentration (μg/m³),Mass concentration (μg/m³),Mass concentration (μg/m³)
DateTimeUTC,F1_M11,P_M11,Q1_M11,Q2_M11,T1_M11,T2_M11,T3_M11,T4_M11,T5_M11,U1_M11,ZSPAN_M11,X0_M11,X2_M11,X1_M11
2021-12-07 18:00:00,,0821.7,5.01,0.00,22.1,21.5,00.0,31.2,23.9,12.4,0000.0,0011.95,0003.33,0001.84
2021-12-07 18:01:00,,0821.7,4.99,0.00,22.1,21.5,00.0,31.2,23.9,12.4,0000.0,0012.17,0003.29,0001.84
2021-12-07 18:02:00,,0821.7,5.00,0.00,22.1,21.5,00.0,31.2,23.9,12.4,0000.0,0011.59,0003.18,0001.83
2021-12-07 18:03:00,,0821.6,5.00,0.00,22.1,21.5,00.0,31.2,23.9,12.3,0000.0,0011.65,0003.13,0001.83
2021-12-07 18:04:00,,0821.6,5.01,0.00,22.1,21.5,00.0,31.2,23.8,12.4,0000.0,0011.44,0003.10,0001.83
2021-12-07 18:05:00,,0821.6,4.99,0.00,22.1,21.5,00.0,31.2,23.8,12.4,0000.0,0010.52,0002.98,0001.80
2021-12-07 18:06:00,,0821.5,5.01,0.00,22.1,21.5,00.0,31.2,23.8,12.4,0000.0,0010.60,0002.94,0001.77
2021-12-07 18:07:00,,0821.5,5.00,0.00,22.1,21.5,00.0,31.2,23.8,12.4,0000.0,0010.86,0002.94,0001.73
2021-12-07 18:08:00,,0821.4,5.00,0.00,22.1,21.5,00.0,31.2,23.8,12.4,0000.0,0010.85,0002.92,0001.71
2021-12-07 18:09:00,,0821.4,4.99,0.00,22.1,21.5,00.0,31.2,23.8,12.4,0000.0,0010.09,0002.88,0001.68
2021-12-07 18:10:00,,0821.4,5.00,0.00,22.1,21.5,00.0,31.2,23.8,12.4,0000.0,0009.93,0002.86,0001.65
2021-12-07 18:11:00,,0821.5,4.99,0.00,22.1,21.5,00.0,31.2,23.8,12.5,0000.0,0010.35,0002.97,0001.65
2021-12-07 18:12:00,,0821.5,5.01,0.00,22.1,21.5,00.0,31.2,23.8,12.5,0000.0,0010.03,0003.00,0001.63
2021-12-07 18:13:00,,0821.6,4.99,0.00,22.1,21.5,00.0,31.2,23.9,12.6,0000.0,0010.35,0003.03,0001.62
2021-12-07 18:14:00,,0821.6,5.02,0.00,22.1,21.5,00.0,31.2,23.9,12.5,0000.0,0009.78,0003.05,0001.62
2021-12-07 18:15:00,,0821.5,4.98,0.00,22.1,21.5,00.0,31.2,23.9,12.5,0000.0,0009.89,0003.12,0001.62
2021-12-07 18:16:00,,0821.4,5.01,0.00,22.1,21.5,00.0,31.2,23.9,12.5,0000.0,0009.50,0003.09,0001.62
2021-12-07 18:17:00,,0821.3,4.98,0.00,22.1,21.6,00.0,31.2,23.8,12.6,0000.0,0009.38,0003.11,0001.64
2021-12-07 18:18:00,,0821.2,5.00,0.00,22.1,21.6,00.0,31.2,23.9,12.5,0000.0,0009.19,0003.12,0001.66
2021-12-07 18:19:00,,0821.2,4.99,0.00,22.2,21.6,00.0,31.2,23.9,12.6,0000.0,0009.42,0003.14,0001.68
2021-12-07 18:20:00,,0821.2,5.00,0.00,22.2,21.6,00.0,31.2,23.9,12.6,0000.0,0010.17,0003.17,0001.71
2021-12-07 18:21:00,,0821.2,5.01,0.00,22.2,21.6,00.0,31.2,23.9,12.6,0000.0,0010.23,0003.17,0001.73
2021-12-07 18:22:00,,0821.2,4.98,0.00,22.2,21.6,00.0,31.2,23.9,12.6,0000.0,0010.60,0003.19,0001.75
2021-12-07 18:23:00,,0821.1,5.01,0.00,22.2,21.6,00.0,31.2,23.9,12.6,0000.0,0010.80,0003.21,0001.79
2021-12-07 18:24:00,,0821.1,5.01,0.00,22.2,21.6,00.0,31.2,23.9,12.6,0000.0,0010.46,0003.22,0001.81
2021-12-07 18:25:00,,0821.0,4.99,0.00,22.2,21.6,00.0,31.2,23.9,12.6,0000.0,0010.56,0003.26,0001.84
2021-12-07 18:26:00,,0821.1,5.02,0.00,22.2,21.5,00.0,31.2,23.9,12.5,0000.0,0010.62,0003.28,0001.90
2021-12-07 18:27:00,,0821.0,4.99,0.00,22.2,21.5,00.0,31.2,23.8,12.5,0000.0,0011.08,0003.34,0001.94
2021-12-07 18:28:00,,0821.0,5.01,0.00,22.1,21.5,00.0,31.2,23.8,12.5,0000.0,0011.34,0003.42,0001.99
2021-12-07 18:29:00,,0821.0,4.99,0.00,22.1,21.5,00.0,31.2,23.9,12.5,0000.0,0010.76,0003.44,0002.03
2021-12-07 18:30:00,,0821.0,5.00,0.00,22.1,21.5,00.0,31.2,23.9,12.6,0000.0,0010.30,0003.44,0002.05
2021-12-07 18:31:00,,0821.0,5.00,0.00,22.2,21.6,00.0,31.2,23.9,12.5,0000.0,0010.21,0003.42,0002.07
2021-12-07 18:32:00,,0821.0,5.02,0.00,22.2,21.6,00.0,31.2,23.9,12.5,0000.0,0011.57,0003.44,0002.10
2021-12-07 18:33:00,,0821.0,4.99,0.00,22.2,21.7,00.0,31.2,23.9,12.5,0000.0,0012.28,0003.41,0002.11
2021-12-07 18:34:00,,0821.1,5.00,0.00,22.2,21.7,00.0,31.2,24.0,12.5,0000.0,0012.28,0003.40,0002.12
2021-12-07 18:35:00,,0821.1,5.00,0.00,22.2,21.7,00.0,31.2,24.0,12.6,0000.0,0012.80,0003.41,0002.14
2021-12-07 18:36:00,,0821.2,5.00,0.00,22.2,21.7,00.0,31.2,24.0,12.6,0000.0,0013.71,0003.41,0002.16
2021-12-07 18:37:00,,0821.3,5.01,0.00,22.3,21.7,00.0,31.2,24.0,12.6,0000.0,0013.89,0003.37,0002.16
2021-12-07 18:38:00,,0821.2,4.99,0.00,22.3,21.8,00.0,31.2,24.0,12.5,0000.0,0014.26,0003.37,0002.16
2021-12-07 18:39:00,,0821.1,5.01,0.00,22.3,21.8,00.0,31.2,24.1,12.5,0000.0,0014.28,0003.37,0002.17
2021-12-07 18:40:00,,0821.1,5.00,0.00,22.3,21.8,00.0,31.2,24.1,12.4,0000.0,0014.32,0003.36,0002.17
2021-12-07 18:41:00,,0821.2,4.99,0.00,22.3,21.8,00.0,31.2,24.1,12.4,0000.0,0014.27,0003.38,0002.19
2021-12-07 18:42:00,,0821.1,5.01,0.00,22.3,21.8,00.0,31.3,24.2,12.4,0000.0,0013.75,0003.43,0002.21
2021-12-07 18:43:00,,0821.2,5.00,0.00,22.4,21.9,00.0,31.3,24.2,12.4,0000.0,0012.78,0003.43,0002.22
2021-12-07 18:44:00,,0821.1,4.99,0.00,22.4,21.9,00.0,31.3,24.2,12.4,0000.0,0011.56,0003.46,0002.23
2021-12-07 18:45:00,,0820.9,5.02,0.00,22.4,21.9,00.0,31.3,24.3,12.4,0000.0,0011.13,0003.49,0002.26
2021-12-07 18:46:00,,0820.8,5.01,0.00,22.5,22.0,00.0,31.3,24.3,12.3,0000.0,0010.98,0003.55,0002.28
2021-12-07 18:47:00,,0820.6,4.99,0.00,22.5,22.0,00.0,31.3,24.3,12.3,0000.0,0010.33,0003.56,0002.27
2021-12-07 18:48:00,,0820.6,5.01,0.00,22.5,22.0,00.0,31.4,24.3,12.3,0000.0,0010.69,0003.57,0002.27
2021-12-07 18:49:00,,0820.3,4.99,0.00,22.5,22.0,00.0,31.4,24.4,12.3,0000.0,0010.73,0003.54,0002.27
2021-12-07 18:50:00,,0820.3,5.02,0.00,22.6,22.0,00.0,31.4,24.3,12.3,0000.0,0010.74,0003.48,0002.27
2021-12-07 18:51:00,,0820.6,4.99,0.00,22.6,22.0,00.0,31.4,24.4,12.3,0000.0,0011.21,0003.46,0002.26
2021-12-07 18:52:00,,0820.6,5.01,0.00,22.6,22.0,00.0,31.4,24.4,12.4,0000.0,0011.28,0003.48,0002.25
2021-12-07 18:53:00,,0820.6,5.00,0.00,22.6,22.0,00.0,31.5,24.4,12.3,0000.0,0011.68,0003.48,0002.25
2021-12-07 18:54:00,,0820.5,4.99,0.00,22.6,22.1,00.0,31.5,24.4,12.3,0000.0,0012.37,0003.47,0002.25
2021-12-07 18:55:00,,0820.4,5.01,0.00,22.6,22.1,00.0,31.5,24.4,12.4,0000.0,0012.48,0003.43,0002.25
2021-12-07 18:56:00,,0820.3,5.00,0.00,22.6,22.1,00.0,31.5,24.4,12.3,0000.0,0012.48,0003.37,0002.24
2021-12-07 18:57:00,,0820.2,4.99,0.00,22.6,22.1,00.0,31.5,24.4,12.3,0000.0,0012.46,0003.33,0002.23
2021-12-07 18:58:00,,0820.3,5.01,0.00,22.6,22.1,00.0,31.5,24.4,12.3,0000.0,0012.02,0003.34,0002.24
2021-12-07 18:59:00,,0820.4,4.99,0.00,22.7,22.1,00.0,31.5,24.5,12.3,0000.0,0011.47,0003.39,0002.27
